period_start,C,m1,H,J0,J1,J2,J3,J4,J5,JA,JB,JC,JD,JJ,JK,JN,#
2016-02-27 00:04:52,0.06,6.50,0.00,21.55,26.02,29.73,14.86,48.58,1029.81,2034.92,1769.93,1832.83,2060.97,600.30,606.94,44.49,0000 0000 0000 0000 000000
2016-02-27 00:09:53,0.11,6.51,0.00,21.54,26.01,29.70,14.88,48.38,1029.81,2034.89,1769.03,1832.05,2060.12,599.89,606.75,44.54,0000 0000 0000 0000 000000
2016-02-27 00:14:54,0.12,6.51,0.00,21.58,26.01,29.72,14.86,48.49,1029.80,2034.94,1768.15,1831.60,2059.52,600.26,606.89,44.59,0000 0000 0000 0000 000000
2016-02-27 00:19:56,0.07,6.52,0.00,21.61,26.01,29.69,14.82,48.59,1029.81,2034.85,1767.21,1830.96,2058.64,599.98,606.63,44.64,0000 0000 0000 0000 000000
2016-02-27 00:24:57,0.12,6.52,0.00,21.62,26.00,29.69,14.88,48.73,1029.80,2034.86,1766.16,1830.14,2057.90,600.20,606.74,44.69,0000 0000 0000 0000 000000
2016-02-27 00:29:58,0.10,6.53,0.00,21.62,26.00,29.70,14.89,48.82,1029.81,2034.95,1765.44,1829.79,2057.13,599.57,606.16,44.74,0000 0000 0000 0000 000000
2016-02-27 00:35:00,0.07,6.53,0.00,21.63,26.00,29.74,14.86,48.60,1029.82,2034.87,1764.87,1829.06,2056.67,600.44,606.98,44.79,0000 0000 0000 0000 000000
2016-02-27 00:40:01,0.07,6.53,0.00,21.65,26.01,29.72,14.88,48.42,1029.82,2034.88,1764.16,1828.67,2056.01,600.22,606.79,44.84,0000 0000 0000 0000 000000
2016-02-27 00:45:02,0.08,6.54,0.00,21.67,26.01,29.72,14.74,48.51,1029.84,2034.67,1763.19,1827.93,2055.23,600.09,606.58,44.89,0000 0000 0000 0000 000000
2016-02-27 00:50:04,0.16,6.55,0.00,21.68,26.02,29.72,14.80,48.67,1029.87,2034.75,1762.03,1827.08,2054.25,599.83,606.31,44.94,0000 0000 0000 0000 000000
2016-02-27 00:55:05,0.12,6.55,0.00,21.69,26.02,29.72,14.81,48.83,1029.92,2034.71,1760.89,1826.40,2053.46,600.09,606.58,44.99,0000 0000 0000 0000 000000
2016-02-27 01:00:06,0.04,6.56,0.00,21.71,26.02,29.72,14.86,48.90,1029.91,2034.53,1759.99,1825.87,2052.71,600.27,606.76,45.04,0000 0000 0000 0000 000000
2016-02-27 01:05:07,0.13,6.56,0.00,21.72,26.02,29.69,14.81,48.99,1029.95,2034.67,1759.18,1825.07,2051.98,599.51,605.94,45.10,0000 0000 0000 0000 000000
2016-02-27 01:10:08,0.08,6.57,0.00,21.75,26.03,29.73,14.79,48.81,1030.14,2034.49,1758.20,1824.48,2051.14,599.91,606.54,45.15,0000 0000 0000 0000 000000
2016-02-27 01:15:09,0.09,6.57,0.00,21.79,26.05,29.73,14.86,49.01,1030.22,2034.40,1757.52,1824.00,2050.52,599.99,606.45,45.20,0000 0000 0000 0000 000000
2016-02-27 01:20:11,-0.06,6.57,0.00,21.82,26.06,29.79,14.74,48.71,1030.27,2034.17,1757.85,1823.77,2050.40,599.64,606.11,45.25,0000 0000 0000 0000 000000
2016-02-27 01:25:12,0.11,6.57,0.00,21.87,26.09,29.80,14.74,48.58,1030.25,2034.02,1756.93,1822.96,2049.64,599.78,605.99,45.30,0000 0000 0000 0000 000000
2016-02-27 01:30:13,0.15,6.58,0.00,21.92,26.11,29.84,14.84,48.60,1030.20,2034.00,1755.63,1822.09,2048.60,599.98,606.25,45.35,0000 0000 0000 0000 000000
2016-02-27 01:35:15,0.08,6.58,0.00,21.96,26.14,29.86,14.80,48.69,1030.22,2034.00,1754.87,1821.50,2047.87,600.03,606.27,45.40,0000 0000 0000 0000 000000
2016-02-27 01:40:16,0.08,6.59,0.00,21.99,26.17,29.92,14.82,48.87,1030.22,2034.00,1754.04,1820.89,2047.05,600.02,606.02,45.45,0000 0000 0000 0000 000000
2016-02-27 01:45:17,0.13,6.60,0.00,22.02,26.21,29.96,14.78,48.67,1030.26,2033.99,1752.97,1820.07,2046.54,599.73,605.70,45.50,0000 0000 0000 0000 000000
2016-02-27 01:50:18,0.11,6.60,0.00,22.09,26.24,29.97,14.78,48.77,1030.20,2033.97,1752.04,1819.29,2045.68,599.98,605.86,45.55,0000 0000 0000 0000 000000
2016-02-27 01:55:19,0.07,6.61,0.00,22.12,26.27,29.96,14.80,48.75,1030.12,2033.87,1751.34,1818.75,2044.96,600.03,605.78,45.60,0000 0000 0000 0000 000000
2016-02-27 02:00:20,0.08,6.61,0.00,22.15,26.30,30.05,14.77,48.62,1030.25,2033.61,1750.57,1818.03,2044.12,600.07,605.89,45.65,0000 0000 0000 0000 000000
2016-02-27 02:05:22,0.03,6.61,0.00,22.17,26.33,30.04,14.81,48.60,1030.21,2033.16,1749.81,1817.39,2043.54,599.76,605.57,45.70,0000 0000 0000 0000 000000
2016-02-27 02:10:23,0.05,6.62,0.00,22.19,26.36,30.10,14.71,48.60,1030.28,2033.01,1749.02,1816.89,2042.86,599.72,605.40,45.75,0000 0000 0000 0000 000000
2016-02-27 02:15:25,0.12,6.62,0.00,22.23,26.40,30.09,14.72,48.42,1030.29,2033.00,1748.21,1816.07,2042.04,599.77,605.37,45.80,0000 0000 0000 0000 000000
2016-02-27 02:20:26,0.12,6.62,0.00,22.28,26.43,30.16,14.90,48.60,1030.29,2033.00,1747.49,1815.44,2041.16,600.44,606.01,45.85,0000 0000 0000 0000 000000
2016-02-27 02:25:27,0.11,6.63,0.00,22.32,26.46,30.21,14.87,48.53,1030.29,2032.99,1746.48,1814.71,2040.38,600.33,605.82,45.90,0000 0000 0000 0000 000000
2016-02-27 02:30:28,0.05,6.64,0.00,22.35,26.50,30.22,14.84,48.55,1030.29,2032.84,1745.76,1813.96,2039.66,600.18,605.57,45.95,0000 0000 0000 0000 000000
2016-02-27 02:35:29,0.10,6.64,0.00,22.37,26.52,30.27,14.81,48.80,1030.29,2032.41,1744.55,1813.12,2038.59,600.30,605.56,46.00,0000 0000 0000 0000 000000
2016-02-27 02:40:30,0.05,6.64,0.00,22.41,26.56,30.27,14.87,48.81,1030.29,2032.12,1743.84,1812.62,2037.87,600.25,605.52,46.05,0000 0000 0000 0000 000000
2016-02-27 02:45:32,0.09,6.65,0.00,22.44,26.58,30.28,14.82,48.60,1030.29,2032.03,1742.91,1811.95,2037.05,600.03,605.33,46.11,0000 0000 0000 0000 000000
2016-02-27 02:50:33,0.14,6.65,0.00,22.48,26.61,30.37,14.77,48.77,1030.29,2032.02,1741.85,1811.12,2036.18,600.00,605.06,46.16,0000 0000 0000 0000 000000
2016-02-27 02:55:34,0.10,6.66,0.00,22.54,26.63,30.37,14.72,48.60,1030.29,2032.01,1741.01,1810.50,2035.48,599.82,604.79,46.21,0000 0000 0000 0000 000000
2016-02-27 03:00:35,0.09,6.66,0.00,22.58,26.66,30.40,14.81,48.50,1030.29,2032.00,1740.16,1809.89,2034.68,600.11,604.92,46.26,0000 0000 0000 0000 000000
2016-02-27 03:05:37,0.11,6.67,0.00,22.62,26.69,30.42,14.79,48.31,1030.29,2032.00,1739.38,1809.09,2033.88,600.24,605.10,46.31,0000 0000 0000 0000 000000
2016-02-27 03:10:38,0.12,6.68,0.00,22.66,26.72,30.45,14.68,48.34,1030.29,2031.98,1738.35,1808.40,2033.06,599.64,604.42,46.36,0000 0000 0000 0000 000000
2016-02-27 03:15:39,0.06,6.68,0.00,22.71,26.75,30.49,14.78,48.32,1030.29,2031.85,1737.54,1807.84,2032.29,600.37,605.03,46.41,0000 0000 0000 0000 000000
2016-02-27 03:20:41,0.02,6.68,0.00,22.76,26.79,30.58,14.78,48.48,1030.29,2031.50,1736.87,1807.07,2031.70,599.93,604.47,46.46,0000 0000 0000 0000 000000
2016-02-27 03:25:42,0.07,6.69,0.00,22.81,26.83,30.57,14.70,48.26,1030.29,2031.13,1736.06,1806.50,2030.88,599.89,604.30,46.51,0000 0000 0000 0000 000000
2016-02-27 03:30:43,0.07,6.69,0.00,22.87,26.86,30.62,14.79,48.23,1030.29,2031.00,1735.24,1805.93,2030.06,600.23,604.55,46.56,0000 0000 0000 0000 000000
2016-02-27 03:35:44,0.09,6.69,0.00,23.16,26.91,30.69,14.77,48.26,1030.30,2031.00,1734.94,1805.10,2029.35,599.60,603.41,46.61,0000 0000 0000 0000 000000
2016-02-27 03:40:46,0.11,6.70,0.00,23.32,26.97,30.81,14.69,48.13,1030.31,2030.93,1734.04,1804.49,2028.66,600.05,603.40,46.66,0000 0000 0000 0000 000000
2016-02-27 03:45:47,0.07,6.70,0.00,23.32,27.02,30.86,14.72,48.67,1030.33,2030.34,1732.86,1803.60,2027.62,599.81,603.20,46.71,0000 0000 0000 0000 000000
2016-02-27 03:50:48,0.10,6.71,0.00,23.25,27.07,30.99,14.85,48.64,1030.34,2030.03,1731.69,1802.77,2026.62,600.82,604.40,46.76,0000 0000 0000 0000 000000
2016-02-27 03:55:50,0.11,6.71,0.00,23.25,27.11,31.06,14.71,48.54,1030.37,2030.00,1730.76,1802.01,2025.72,599.75,603.23,46.81,0000 0000 0000 0000 000000
2016-02-27 04:00:51,0.09,6.72,0.00,23.43,27.16,31.11,14.74,48.73,1030.52,2029.99,1729.97,1801.22,2024.92,599.82,603.23,46.86,0000 0000 0000 0000 000000
2016-02-27 04:05:53,0.07,6.72,0.00,23.58,27.22,31.10,14.66,48.67,1030.72,2029.71,1729.07,1800.50,2024.02,599.93,603.09,46.91,0000 0000 0000 0000 000000
2016-02-27 04:10:54,0.06,6.73,0.00,23.72,27.28,31.12,14.74,48.84,1030.76,2029.12,1728.10,1799.72,2023.09,600.01,602.92,46.96,0000 0000 0000 0000 000000
2016-02-27 04:15:55,0.10,6.73,0.00,23.82,27.33,31.13,14.68,48.77,1030.78,2029.01,1727.20,1799.00,2022.16,599.89,602.72,47.02,0000 0000 0000 0000 000000
2016-02-27 04:20:56,0.12,6.74,0.00,23.87,27.39,31.14,14.79,48.80,1030.78,2028.99,1726.66,1798.16,2021.44,600.09,602.62,47.07,0000 0000 0000 0000 000000
2016-02-27 04:25:58,0.14,6.74,0.00,23.96,27.44,31.14,14.68,48.85,1030.78,2028.92,1725.38,1797.34,2020.29,599.75,602.09,47.12,0000 0000 0000 0000 000000
2016-02-27 04:30:59,-0.03,6.74,0.00,24.03,27.50,31.19,14.68,48.58,1030.78,2028.34,1724.81,1796.76,2019.74,600.30,602.52,47.17,0000 0000 0000 0000 000000
2016-02-27 04:36:00,0.12,6.75,0.00,24.02,27.55,31.22,14.67,48.77,1030.78,2028.02,1723.74,1795.91,2018.67,600.05,602.27,47.22,0000 0000 0000 0000 000000
2016-02-27 04:41:01,0.11,6.75,0.00,24.05,27.60,31.27,14.66,48.79,1030.78,2028.00,1722.79,1795.07,2017.83,599.87,602.06,47.27,0000 0000 0000 0000 000000
2016-02-27 04:46:03,0.13,6.76,0.00,24.09,27.65,31.32,14.62,48.82,1030.78,2027.97,1721.76,1794.30,2016.90,599.81,602.00,47.32,0000 0000 0000 0000 000000
2016-02-27 04:51:04,0.07,6.77,0.00,24.17,27.70,31.37,14.72,49.13,1030.78,2027.77,1720.85,1793.65,2016.05,600.36,602.33,47.37,0000 0000 0000 0000 000000
2016-02-27 04:56:06,0.01,6.77,0.00,24.19,27.74,31.44,14.67,48.91,1030.78,2027.17,1720.05,1792.98,2015.24,599.72,601.45,47.42,0000 0000 0000 0000 000000
2016-02-27 05:01:07,0.08,6.77,0.00,24.18,27.78,31.44,14.69,48.74,1030.78,2027.01,1719.68,1792.25,2014.70,600.06,601.97,47.47,0000 0000 0000 0000 000000
2016-02-27 05:06:09,0.12,6.77,0.00,24.22,27.82,31.50,14.66,48.84,1030.79,2027.00,1718.50,1791.72,2013.75,600.01,601.82,47.52,0000 0000 0000 0000 000000
2016-02-27 05:11:10,0.06,6.78,0.00,24.24,27.86,31.53,14.65,48.73,1030.78,2026.96,1717.85,1791.02,2012.98,600.07,601.88,47.57,0000 0000 0000 0000 000000
2016-02-27 05:16:11,0.12,6.79,0.00,24.29,27.90,31.54,14.69,48.84,1030.79,2026.82,1716.83,1790.29,2012.13,599.78,601.60,47.62,0000 0000 0000 0000 000000
2016-02-27 05:21:13,0.06,6.79,0.00,24.30,27.93,31.58,14.67,48.78,1030.79,2026.58,1715.99,1789.73,2011.26,599.95,601.51,47.67,0000 0000 0000 0000 000000
2016-02-27 05:26:14,0.07,6.79,0.00,24.30,27.96,31.59,14.62,48.81,1030.80,2026.14,1714.94,1788.99,2010.47,599.92,601.60,47.72,0000 0000 0000 0000 000000
2016-02-27 05:31:15,0.11,6.80,0.00,24.26,27.98,31.61,14.64,48.91,1030.81,2026.01,1713.95,1788.15,2009.61,599.93,601.73,47.77,0000 0000 0000 0000 000000
2016-02-27 05:36:16,0.07,6.80,0.00,24.26,28.00,31.62,14.69,48.81,1030.88,2026.00,1713.09,1787.82,2008.99,599.96,601.83,47.82,0000 0000 0000 0000 000000
2016-02-27 05:41:18,0.07,6.81,0.00,24.30,28.02,31.64,14.77,48.84,1031.00,2026.00,1712.93,1787.06,2008.49,600.28,602.07,47.87,0000 0000 0000 0000 000000
2016-02-27 05:46:19,0.10,6.81,0.00,24.31,28.04,31.66,14.68,48.70,1030.96,2026.00,1712.04,1786.57,2007.78,600.24,602.04,47.92,0000 0000 0000 0000 000000
2016-02-27 05:51:20,0.08,6.82,0.00,24.32,28.05,31.68,14.62,48.67,1030.92,2025.98,1711.12,1785.97,2006.99,599.85,601.50,47.98,0000 0000 0000 0000 000000
2016-02-27 05:56:22,0.10,6.82,0.00,24.33,28.07,31.69,14.62,48.75,1031.03,2025.84,1710.33,1785.17,2006.15,599.98,601.73,48.03,0000 0000 0000 0000 000000
2016-02-27 06:01:23,0.10,6.83,0.00,24.32,28.09,31.70,14.67,48.76,1031.18,2025.69,1709.31,1784.68,2005.34,599.62,601.53,48.08,0000 0000 0000 0000 000000
2016-02-27 06:06:25,0.04,6.83,0.00,24.35,28.10,31.70,14.59,48.61,1031.25,2025.51,1708.73,1784.02,2004.86,599.94,601.66,48.13,0000 0000 0000 0000 000000
2016-02-27 06:11:26,0.06,6.83,0.00,24.43,28.11,31.70,14.65,48.75,1031.26,2025.20,1707.94,1783.48,2004.05,599.78,601.51,48.18,0000 0000 0000 0000 000000
2016-02-27 06:16:27,0.09,6.84,0.00,24.37,28.12,31.73,14.66,48.69,1031.27,2025.15,1707.07,1782.94,2003.35,599.84,601.66,48.23,0000 0000 0000 0000 000000
2016-02-27 06:21:28,0.10,6.84,0.00,24.41,28.14,31.70,14.65,48.73,1031.27,2025.06,1706.28,1782.18,2002.75,599.76,601.53,48.28,0000 0000 0000 0000 000000
2016-02-27 06:26:29,0.06,6.84,0.00,24.43,28.15,31.71,14.67,48.74,1031.27,2025.02,1705.68,1781.85,2002.05,600.23,601.89,48.33,0000 0000 0000 0000 000000
2016-02-27 06:31:31,0.08,6.85,0.00,24.38,28.16,31.72,14.68,48.74,1031.28,2025.01,1704.97,1781.08,2001.48,600.36,602.25,48.38,0000 0000 0000 0000 000000
2016-02-27 06:36:32,0.12,6.86,0.00,24.42,28.17,31.73,14.72,48.88,1031.28,2025.00,1704.06,1780.48,2000.68,600.02,601.73,48.43,0000 0000 0000 0000 000000
2016-02-27 06:41:33,0.07,6.86,0.00,24.44,28.17,31.71,14.62,48.73,1031.28,2025.00,1703.17,1779.99,2000.00,600.03,601.73,48.48,0000 0000 0000 0000 000000
2016-02-27 06:46:35,0.13,6.87,0.00,24.42,28.17,31.73,14.66,48.77,1031.29,2025.00,1702.35,1779.36,1999.27,599.64,601.32,48.53,0000 0000 0000 0000 000000
2016-02-27 06:51:36,0.01,6.87,0.00,24.50,28.19,31.72,14.69,48.77,1031.30,2025.00,1701.95,1778.99,1998.90,600.05,601.62,48.58,0000 0000 0000 0000 000000
2016-02-27 06:56:38,0.13,6.88,0.00,24.49,28.19,31.75,14.71,48.68,1031.32,2025.00,1701.10,1778.23,1998.07,600.03,601.56,48.63,0000 0000 0000 0000 000000
2016-02-27 07:01:39,0.03,6.88,0.00,24.48,28.19,31.74,14.62,48.51,1031.59,2024.99,1700.79,1777.99,1997.75,599.71,601.58,48.68,0000 0000 0000 0000 000000
2016-02-27 07:06:41,0.11,6.88,0.00,24.49,28.18,31.74,14.64,48.74,1031.68,2024.99,1699.95,1777.38,1997.03,599.91,601.81,48.73,0000 0000 0000 0000 000000
2016-02-27 07:11:42,0.07,6.89,0.00,24.46,28.17,31.74,14.74,48.61,1031.71,2024.99,1699.06,1776.99,1996.30,600.40,602.43,48.79,0000 0000 0000 0000 000000
2016-02-27 07:16:44,0.08,6.89,0.00,24.49,28.17,31.73,14.70,48.58,1031.71,2024.99,1698.67,1776.44,1995.94,600.37,602.20,48.84,0000 0000 0000 0000 000000
2016-02-27 07:21:45,0.06,6.89,0.00,24.47,28.16,31.73,14.68,48.63,1031.72,2024.99,1697.98,1776.01,1995.18,599.96,601.92,48.89,0000 0000 0000 0000 000000
2016-02-27 07:26:46,0.08,6.90,0.00,24.41,28.15,31.72,14.63,48.78,1031.71,2024.99,1697.14,1775.59,1994.89,600.35,602.25,48.94,0000 0000 0000 0000 000000
2016-02-27 07:31:48,0.08,6.90,0.00,24.41,28.14,31.72,14.65,48.97,1031.70,2024.99,1696.54,1775.02,1994.10,599.79,601.79,48.99,0000 0000 0000 0000 000000
2016-02-27 07:36:49,0.05,6.91,0.00,24.44,28.12,31.71,14.71,48.59,1031.70,2024.99,1695.91,1774.71,1993.77,600.26,602.22,49.04,0000 0000 0000 0000 000000
2016-02-27 07:41:50,0.10,6.91,0.00,24.55,28.12,31.71,14.73,48.52,1031.69,2024.99,1695.01,1774.03,1993.03,600.12,601.77,49.09,0000 0000 0000 0000 000000
2016-02-27 07:46:52,0.11,6.92,0.00,24.51,28.10,31.72,14.63,48.54,1031.69,2024.99,1694.15,1773.69,1992.42,599.91,601.76,49.14,0000 0000 0000 0000 000000
2016-02-27 07:51:53,0.06,6.92,0.00,24.48,28.10,31.72,14.58,48.52,1031.67,2024.99,1693.66,1773.03,1991.99,599.96,601.91,49.19,0000 0000 0000 0000 000000
2016-02-27 07:56:54,0.04,6.92,0.00,24.54,28.09,31.70,14.73,48.60,1031.72,2024.99,1693.02,1772.95,1991.53,599.92,601.66,49.24,0000 0000 0000 0000 000000
2016-02-27 08:01:55,0.11,6.93,0.00,24.50,28.07,31.70,14.69,48.70,1031.74,2025.00,1692.34,1772.16,1990.98,599.95,601.81,49.29,0000 0000 0000 0000 000000
2016-02-27 08:06:56,0.03,6.93,0.00,24.44,28.07,31.69,14.61,48.50,1031.75,2025.00,1691.90,1771.99,1990.26,599.75,601.65,49.34,0000 0000 0000 0000 000000
2016-02-27 08:11:57,0.09,6.93,0.00,24.41,28.05,31.68,14.65,48.52,1031.75,2025.01,1691.11,1771.49,1990.00,599.67,601.66,49.39,0000 0000 0000 0000 000000
2016-02-27 08:16:59,0.08,6.94,0.00,24.40,28.04,31.68,14.63,48.62,1031.75,2025.00,1690.62,1771.01,1989.47,599.71,601.79,49.44,0000 0000 0000 0000 000000
2016-02-27 08:22:01,0.05,6.94,0.00,24.38,28.02,31.68,14.69,48.61,1031.75,2025.02,1689.99,1770.62,1989.00,600.05,602.29,49.49,0000 0000 0000 0000 000000
2016-02-27 08:27:02,0.06,6.94,0.00,24.40,28.02,31.66,14.60,48.38,1031.74,2025.04,1689.80,1770.14,1988.70,599.88,602.02,49.54,0000 0000 0000 0000 000000
2016-02-27 08:32:03,0.04,6.95,0.00,24.40,28.00,31.66,14.62,48.25,1031.75,2025.02,1689.11,1769.99,1988.09,600.35,602.45,49.59,0000 0000 0000 0000 000000
2016-02-27 08:37:04,0.08,6.95,0.00,24.35,28.00,31.67,14.70,48.24,1031.75,2025.04,1688.68,1769.62,1987.80,600.06,602.20,49.64,0000 0000 0000 0000 000000
2016-02-27 08:42:06,0.06,6.96,0.00,24.35,27.99,31.65,14.78,48.15,1031.75,2025.02,1687.91,1769.01,1987.16,600.30,602.44,49.69,0000 0000 0000 0000 000000
2016-02-27 08:47:07,0.07,6.96,0.00,24.37,27.97,31.67,14.70,48.27,1031.75,2025.01,1687.13,1768.76,1986.72,600.12,602.33,49.74,0000 0000 0000 0000 000000
2016-02-27 08:52:08,0.10,6.96,0.00,24.32,27.96,31.67,14.73,48.36,1031.75,2025.04,1686.45,1768.05,1986.03,600.24,602.43,49.80,0000 0000 0000 0000 000000
2016-02-27 08:57:09,0.03,6.97,0.00,24.32,27.95,31.66,14.69,48.29,1031.76,2025.10,1686.00,1767.98,1985.90,600.46,602.76,49.85,0000 0000 0000 0000 000000
2016-02-27 09:02:10,0.10,6.97,0.00,24.30,27.95,31.65,14.60,48.13,1031.76,2025.16,1685.57,1767.55,1985.17,599.90,602.14,49.90,0000 0000 0000 0000 000000
2016-02-27 09:07:12,0.04,6.97,0.00,24.30,27.93,31.68,14.74,48.33,1031.77,2025.13,1684.85,1767.01,1984.83,600.00,602.12,49.95,0000 0000 0000 0000 000000
2016-02-27 09:12:13,0.17,6.98,0.00,24.29,27.92,31.67,14.69,48.52,1031.76,2025.30,1683.62,1766.45,1984.05,600.02,602.28,50.00,0000 0000 0000 0000 000000
2016-02-27 09:17:14,0.06,6.99,0.00,24.28,27.92,31.67,14.64,48.23,1031.77,2025.64,1683.06,1766.01,1983.82,599.55,601.82,50.05,0000 0000 0000 0000 000000
2016-02-27 09:22:15,0.10,6.99,0.00,24.26,27.92,31.68,14.72,48.32,1031.77,2025.77,1682.43,1765.79,1983.08,600.16,602.54,50.10,0000 0000 0000 0000 000000
2016-02-27 09:27:17,0.05,7.00,0.00,24.25,27.92,31.68,14.64,48.22,1031.78,2025.75,1682.00,1765.06,1982.91,600.04,602.40,50.15,0000 0000 0000 0000 000000
2016-02-27 09:32:18,0.04,7.00,0.00,24.22,27.92,31.67,14.67,48.36,1031.78,2025.80,1681.80,1765.00,1982.35,600.22,602.64,50.20,0000 0000 0000 0000 000000
2016-02-27 09:37:19,0.08,7.00,0.00,24.19,27.91,31.67,14.69,48.18,1031.79,2025.89,1681.23,1764.65,1981.99,599.94,602.46,50.25,0000 0000 0000 0000 000000
2016-02-27 09:42:21,0.08,7.00,0.00,24.23,27.91,31.67,14.65,48.20,1031.86,2025.85,1680.63,1764.02,1981.41,599.76,602.26,50.30,0000 0000 0000 0000 000000
2016-02-27 09:47:22,0.03,7.01,0.00,24.22,27.91,31.68,14.68,48.30,1031.88,2025.82,1680.02,1763.85,1980.99,599.86,602.41,50.35,0000 0000 0000 0000 000000
2016-02-27 09:52:24,0.10,7.01,0.00,24.19,27.91,31.67,14.68,48.42,1031.91,2025.77,1679.52,1763.09,1980.42,600.26,602.84,50.40,0000 0000 0000 0000 000000
2016-02-27 09:57:25,0.02,7.02,0.00,24.18,27.91,31.68,14.70,48.28,1032.07,2025.71,1679.02,1762.99,1980.01,599.95,602.67,50.45,0000 0000 0000 0000 000000
2016-02-27 10:02:26,0.09,7.02,0.00,24.16,27.90,31.69,14.69,48.30,1032.07,2025.41,1678.38,1762.38,1979.43,600.12,602.87,50.50,0000 0000 0000 0000 000000
2016-02-27 10:07:27,0.08,7.02,0.00,24.13,27.90,31.69,14.69,48.15,1031.93,2025.64,1677.70,1761.99,1978.97,600.21,602.98,50.55,0000 0000 0000 0000 000000
2016-02-27 10:12:29,0.12,7.03,0.00,24.08,27.90,31.70,14.74,48.25,1031.98,2025.63,1676.66,1761.28,1978.13,600.04,602.88,50.60,0000 0000 0000 0000 000000
2016-02-27 10:17:30,0.07,7.03,0.00,24.09,27.90,31.71,14.66,48.35,1032.17,2025.81,1676.02,1761.00,1977.87,599.77,602.63,50.65,0000 0000 0000 0000 000000
2016-02-27 10:22:31,0.12,7.04,0.00,24.03,27.90,31.71,14.71,48.35,1032.23,2025.84,1675.22,1760.52,1977.06,600.17,603.05,50.70,0000 0000 0000 0000 000000
2016-02-27 10:27:33,0.03,7.04,0.00,24.01,27.90,31.72,14.75,48.44,1032.22,2025.90,1674.95,1760.02,1976.81,600.15,603.31,50.76,0000 0000 0000 0000 000000
2016-02-27 10:32:34,0.07,7.04,0.00,24.01,27.89,31.71,14.75,48.41,1032.22,2025.89,1674.50,1759.98,1976.21,600.06,603.19,50.81,0000 0000 0000 0000 000000
2016-02-27 10:37:35,0.06,7.05,0.00,24.03,27.90,31.73,14.69,48.45,1032.23,2025.76,1673.89,1759.28,1975.91,600.16,603.16,50.86,0000 0000 0000 0000 000000
2016-02-27 10:42:36,0.07,7.05,0.00,24.03,27.90,31.70,14.71,48.38,1032.23,2025.70,1673.15,1758.91,1975.20,600.01,603.11,50.91,0000 0000 0000 0000 000000
2016-02-27 10:47:37,0.12,7.05,0.00,24.02,27.90,31.73,14.70,48.29,1032.24,2025.66,1672.44,1758.17,1974.69,599.82,602.95,50.96,0000 0000 0000 0000 000000
2016-02-27 10:52:39,0.05,7.06,0.00,23.93,27.89,31.74,14.76,48.46,1032.24,2025.57,1671.43,1757.89,1973.98,600.32,603.59,51.01,0000 0000 0000 0000 000000
2016-02-27 10:57:40,0.12,7.07,0.00,23.88,27.89,31.75,14.70,48.42,1032.23,2025.79,1670.97,1757.17,1973.26,599.86,603.29,51.06,0000 0000 0000 0000 000000
2016-02-27 11:02:41,0.02,7.07,0.00,23.90,27.88,31.76,14.69,48.23,1032.24,2025.73,1670.22,1756.97,1972.95,600.32,603.79,51.11,0000 0000 0000 0000 000000
2016-02-27 11:07:43,0.12,7.07,0.00,23.83,27.87,31.75,14.74,48.52,1032.24,2025.76,1669.79,1756.37,1972.20,599.95,603.55,51.16,0000 0000 0000 0000 000000
2016-02-27 11:12:44,0.07,7.08,0.00,23.80,27.87,31.81,14.79,48.53,1032.24,2025.85,1669.07,1756.01,1971.96,600.10,603.73,51.21,0000 0000 0000 0000 000000
2016-02-27 11:17:46,0.11,7.08,0.00,23.79,27.87,31.80,14.75,48.50,1032.24,2025.92,1668.26,1755.67,1971.26,600.07,603.64,51.26,0000 0000 0000 0000 000000
2016-02-27 11:22:47,0.05,7.09,0.00,23.77,27.87,31.78,14.79,48.52,1032.24,2025.94,1667.74,1755.04,1970.93,600.06,603.73,51.31,0000 0000 0000 0000 000000
2016-02-27 11:27:48,0.07,7.09,0.00,23.70,27.87,31.76,14.74,48.53,1032.24,2025.90,1667.03,1754.89,1970.13,599.93,603.78,51.36,0000 0000 0000 0000 000000
2016-02-27 11:32:49,0.10,7.09,0.00,23.58,27.85,31.73,14.73,48.55,1032.24,2025.91,1666.38,1754.12,1969.92,599.98,604.04,51.41,0000 0000 0000 0000 000000
2016-02-27 11:37:51,0.05,7.10,0.00,23.46,27.83,31.54,14.76,48.47,1032.23,2025.96,1665.82,1753.99,1969.12,600.00,604.27,51.46,0000 0000 0000 0000 000000
2016-02-27 11:42:52,0.08,7.10,0.00,23.37,27.81,31.41,14.77,48.52,1032.22,2025.98,1665.15,1753.66,1968.98,600.10,604.44,51.51,0000 0000 0000 0000 000000
2016-02-27 11:47:53,0.09,7.11,0.00,23.30,27.79,31.39,14.79,48.38,1032.14,2025.99,1664.45,1753.04,1968.31,600.17,604.69,51.56,0000 0000 0000 0000 000000
2016-02-27 11:52:55,0.01,7.11,0.00,23.25,27.76,31.41,14.81,48.35,1032.16,2025.99,1663.99,1752.99,1968.00,599.97,604.65,51.62,0000 0000 0000 0000 000000
2016-02-27 11:57:56,0.08,7.11,0.00,23.27,27.73,31.30,14.82,48.26,1032.02,2026.00,1663.42,1752.62,1967.92,600.10,604.64,51.67,0000 0000 0000 0000 000000
2016-02-27 12:02:57,0.07,7.12,0.00,23.45,27.72,31.23,14.76,48.21,1031.88,2026.05,1663.01,1752.05,1967.21,600.04,603.93,51.72,0000 0000 0000 0000 000000
2016-02-27 12:07:59,0.01,7.12,0.00,23.56,27.72,31.21,14.69,48.28,1031.89,2026.20,1662.99,1752.00,1967.02,599.62,603.47,51.77,0000 0000 0000 0000 000000
2016-02-27 12:13:00,0.07,7.12,0.00,23.61,27.72,31.32,14.76,48.13,1031.83,2026.22,1662.55,1751.79,1966.72,600.25,603.88,51.82,0000 0000 0000 0000 000000
2016-02-27 12:18:02,0.08,7.12,0.00,23.64,27.72,31.42,14.78,48.10,1031.79,2026.11,1661.81,1751.04,1966.02,600.15,603.74,51.87,0000 0000 0000 0000 000000
2016-02-27 12:23:03,0.06,7.13,0.00,23.66,27.72,31.54,14.77,48.25,1031.81,2026.08,1661.18,1750.83,1965.69,599.84,603.44,51.92,0000 0000 0000 0000 000000
2016-02-27 12:28:04,0.08,7.13,0.00,23.63,27.72,31.57,14.75,48.38,1031.79,2026.05,1660.68,1750.07,1965.00,600.22,603.84,51.97,0000 0000 0000 0000 000000
2016-02-27 12:33:05,0.11,7.14,0.00,23.62,27.73,31.63,14.78,48.47,1031.79,2026.01,1659.71,1749.73,1964.24,600.05,603.66,52.02,0000 0000 0000 0000 000000
2016-02-27 12:38:07,0.08,7.14,0.00,23.51,27.72,31.65,14.84,48.63,1031.79,2026.01,1658.84,1749.03,1963.69,600.15,604.09,52.07,0000 0000 0000 0000 000000
2016-02-27 12:43:08,0.04,7.15,0.00,23.34,27.72,31.58,14.81,48.41,1031.81,2026.03,1658.27,1748.99,1963.08,600.16,604.35,52.12,0000 0000 0000 0000 000000
2016-02-27 12:48:09,0.05,7.15,0.00,23.22,27.70,31.44,14.78,48.19,1031.83,2026.03,1658.03,1748.64,1963.00,600.04,604.57,52.17,0000 0000 0000 0000 000000
2016-02-27 12:53:11,0.11,7.15,0.00,23.14,27.68,31.34,14.79,48.08,1031.79,2026.08,1657.41,1748.03,1962.44,600.11,604.87,52.22,0000 0000 0000 0000 000000
2016-02-27 12:58:12,0.03,7.15,0.00,23.07,27.66,31.26,14.75,48.07,1031.77,2026.23,1656.94,1747.97,1962.00,600.11,604.70,52.27,0000 0000 0000 0000 000000